Wind_Speed
10 13 17 20 22 23 23 22 20 19 18 18 17 17 18 20 21 23 25 26 26 27 28 29 29 29 30 30 29 28 26 24 22 21 21 22 23 24 24 26 27 28
8 11 14 16 17 17 17 17 16 15 14 14 14 14 14 15 17 19 20 22 23 23 23 24 24 25 25 26 26 25 24 23 23 22 23 24 25 26 28 29 30 31
6 9 13 15 15 16 16 16 15 15 15 14 13 13 13 13 14 15 15 15 15 14 14 15 16 17 18 19 19 20 21 22 23 24 25 26 28 29 31 32 33 34
5 7 10 14 15 15 15 15 15 14 14 14 13 12 10 9 9 8 8 8 8 10 11 13 14 15 15 16 16 17 19 20 22 24 26 28 30 31 33 35 36 38
6 7 10 14 16 15 15 15 15 15 15 13 11 9 7 8 10 11 10 10 11 12 14 16 17 17 18 18 19 20 21 22 24 25 27 29 30 32 34 35 38 39
9 10 12 16 17 17 16 17 18 18 17 15 11 7 5 7 11 13 13 14 15 16 18 20 22 22 22 22 23 24 25 26 27 28 29 31 32 33 34 36 38 40
12 14 15 16 17 17 18 20 21 20 19 17 14 10 7 8 12 15 17 18 20 21 23 25 26 26 26 26 26 27 28 30 31 33 33 34 34 36 37 40 42 43
14 16 17 17 17 17 19 22 22 21 20 18 16 14 13 13 16 19 21 23 24 25 27 28 28 28 28 28 29 30 31 33 36 37 37 37 38 39 40 42 44 45
17 18 18 18 17 18 20 21 21 21 21 18 17 16 16 18 21 23 26 27 27 28 29 30 30 31 31 30 31 33 35 37 39 39 40 40 40 40 42 43 45 46
14 15 16 17 18 20 22 23 22 22 22 21 20 20 21 23 25 27 28 29 29 29 30 31 32 33 32 33 35 37 39 39 39 40 41 41 41 41 42 44 46 46
12 14 16 18 20 23 24 24 23 24 24 24 24 24 26 28 28 29 29 30 30 31 32 33 34 34 35 37 39 41 41 40 40 41 42 42 42 42 44 46 47 47
13 14 16 19 21 24 25 24 23 23 24 25 26 27 29 30 30 31 31 32 33 33 34 34 35 35 37 39 41 43 43 42 41 42 43 43 43 44 46 47 48 49
15 16 18 20 22 24 24 23 23 23 22 23 25 28 30 31 32 32 32 33 34 35 35 35 36 38 40 42 44 45 44 43 43 43 44 44 46 47 48 49 49 51
17 18 19 19 21 22 22 22 23 22 20 23 26 29 30 32 32 32 33 34 35 36 36 37 38 40 43 45 46 46 45 45 45 45 46 48 49 49 50 50 51 51
20 20 19 19 20 20 21 22 23 24 26 29 31 30 31 33 34 34 34 35 37 38 39 40 41 43 46 47 48 47 47 46 46 47 48 49 50 50 50 50 50 50
23 22 22 23 23 22 22 24 27 31 33 32 30 29 32 34 35 36 37 38 40 41 41 42 44 47 48 48 48 47 47 46 47 47 48 48 47 47 47 48 48 48
26 26 26 27 27 26 27 28 31 33 33 31 30 31 34 35 36 38 39 40 42 43 45 46 47 48 48 47 46 46 45 44 44 44 44 44 45 45 46 47 48 49
26 27 28 28 28 28 28 28 29 31 31 31 32 35 38 38 37 38 39 42 44 45 46 46 46 45 45 43 42 41 40 40 41 41 42 43 45 46 47 49 50 52
25 26 27 27 28 28 26 25 26 28 30 31 35 39 41 39 38 39 41 42 42 42 42 42 41 39 37 36 35 36 36 38 39 41 43 45 46 48 49 51 53 55
23 25 26 27 29 28 25 24 25 28 32 36 40 42 40 38 40 41 39 37 37 36 35 34 32 30 30 31 32 34 36 38 41 43 45 46 47 48 49 51 53 56
23 24 26 26 27 27 26 27 29 32 36 39 40 40 39 40 40 38 34 32 31 28 26 25 26 28 30 32 34 37 39 41 44 46 47 48 48 49 49 51 54 57
23 24 25 25 26 28 28 28 30 33 35 36 36 38 39 38 35 31 28 24 21 20 21 25 30 33 35 36 38 40 42 44 46 48 49 50 50 50 52 55 57 57
24 24 25 25 28 29 28 28 30 31 31 31 32 33 33 30 25 21 18 17 17 19 24 30 35 38 40 41 41 42 43 45 47 49 51 52 53 53 55 57 58 57
25 26 26 27 29 29 30 30 28 24 22 22 23 23 21 18 15 14 15 17 19 23 28 34 38 41 43 44 44 44 45 46 48 51 53 54 55 56 57 57 58 59
27 28 29 29 29 29 28 23 17 12 12 13 14 14 13 12 12 14 18 21 24 27 32 37 40 43 44 45 45 45 45 47 50 52 54 55 57 58 58 59 59 60
29 30 30 29 28 26 20 13 7 7 8 10 11 11 10 11 15 20 23 25 28 31 35 38 42 44 45 46 46 46 46 47 50 53 55 56 58 59 60 61 61 61
Wind_Direction
316 311 307 306 303 303 305 309 313 316 318 317 312 306 301 297 294 293 292 292 293 293 294 294 295 295 295 295 295 294 292 290 288 286 285 285 284 284 283 282 281 280
334 324 319 318 317 321 327 333 337 337 335 331 326 320 313 307 302 299 299 299 299 299 300 301 302 303 303 301 299 297 295 293 290 287 285 284 283 282 282 282 281 281
339 333 332 333 334 338 345 350 353 353 352 346 337 329 321 315 311 309 309 310 311 314 320 325 327 325 323 318 313 308 304 301 297 294 291 289 287 286 285 285 284 283
318 334 340 343 345 348 354 358 357 356 356 355 350 344 339 340 345 347 352 360 6 10 10 6 359 352 346 339 332 324 318 313 308 303 299 295 292 291 290 289 288 287
292 314 325 330 333 337 346 352 354 353 352 352 354 358 12 32 30 24 22 21 18 14 9 4 358 352 347 341 336 331 326 321 316 311 306 301 298 296 295 294 293 292
284 295 305 314 317 320 327 334 341 346 348 346 342 348 17 26 12 3 358 353 349 346 345 346 345 342 339 335 332 329 326 322 318 315 310 306 303 301 299 299 298 297
289 291 293 302 310 316 323 331 335 339 345 344 333 323 328 341 343 342 341 339 335 333 333 334 334 333 330 327 326 324 321 319 317 315 312 309 306 304 303 303 302 301
293 293 292 296 305 314 322 330 333 333 338 339 330 318 310 313 320 325 328 329 328 328 328 328 327 325 323 321 320 318 316 315 313 312 311 308 305 304 303 304 304 303
287 291 291 292 298 307 316 322 323 322 324 327 327 321 314 311 312 315 319 321 324 325 325 323 320 318 318 317 316 314 312 311 310 310 308 306 303 301 301 302 302 301
284 288 290 290 295 303 308 311 312 313 314 315 318 318 316 317 316 316 317 319 321 321 320 318 315 314 315 314 314 313 311 309 309 309 308 305 302 300 299 299 299 298
281 286 288 289 295 299 301 303 304 306 308 311 314 315 316 317 317 317 316 316 317 316 315 314 313 312 312 312 314 314 313 311 310 309 308 306 303 301 299 299 298 297
274 283 286 288 291 293 294 295 296 299 303 307 311 313 315 315 315 314 313 313 313 312 312 312 312 311 311 312 314 315 315 313 311 309 308 306 305 303 301 300 300 299
273 284 288 287 287 288 289 290 290 292 297 304 311 313 313 313 312 311 310 310 310 310 310 311 311 311 312 314 315 316 314 313 312 311 310 309 308 307 305 304 303 303
275 283 287 289 288 285 286 289 290 291 297 308 313 313 313 313 312 310 309 308 307 308 310 312 313 314 315 315 316 315 314 314 314 314 313 313 312 311 309 308 306 305
275 278 284 294 297 294 294 296 296 297 301 307 309 309 310 311 310 308 306 306 307 309 311 312 313 314 315 315 316 316 316 316 316 317 317 316 314 313 311 309 307 306
276 278 285 293 296 296 295 295 296 297 301 304 305 306 307 307 307 306 305 306 307 309 310 312 312 313 314 316 317 317 317 319 320 320 319 317 314 312 311 310 309 308
279 283 287 290 292 293 296 299 301 302 302 302 303 305 306 306 306 307 306 307 308 309 310 310 311 313 315 317 318 320 322 323 323 321 319 316 315 314 313 312 311 310
280 284 288 290 292 297 300 304 305 300 296 297 299 303 305 306 306 308 307 307 307 308 309 310 313 316 319 322 324 327 328 327 325 322 320 319 318 317 316 314 313 312
281 285 287 290 295 299 299 300 299 291 286 290 295 300 303 304 305 307 306 306 307 309 312 316 320 324 328 331 334 335 334 333 331 329 327 324 322 319 318 317 316 316
281 285 287 291 297 298 294 293 292 285 283 289 294 299 301 301 301 304 306 308 311 317 323 329 334 339 343 345 345 344 343 341 339 337 334 330 327 324 322 321 321 320
280 283 287 291 295 294 290 287 284 283 287 293 296 298 297 296 298 303 308 314 323 333 342 349 352 353 352 351 349 348 346 344 342 340 338 336 332 329 327 326 324 323
282 285 289 291 290 289 285 281 283 288 294 296 295 294 292 293 298 307 317 330 345 359 2 359 357 356 355 353 350 348 345 344 342 341 340 338 336 333 330 329 327 326
283 285 288 289 287 285 284 286 292 297 298 296 293 292 292 298 309 324 341 359 8 4 357 355 355 355 354 352 349 346 344 343 342 341 340 339 337 335 333 331 331 331
283 283 286 286 285 286 289 293 297 299 297 296 297 300 307 320 339 359 9 6 358 352 350 351 352 352 351 350 347 344 342 342 341 341 340 339 338 336 334 334 335 335
282 283 285 285 287 290 291 291 295 302 310 317 323 331 343 360 10 7 358 352 349 348 347 348 349 349 348 347 344 342 341 341 340 340 340 339 338 337 336 337 338 338
284 286 288 290 291 289 284 282 296 326 340 347 351 356 5 8 356 348 344 344 344 344 344 345 345 345 345 343 341 340 340 340 339 339 339 339 338 338 339 340 340 339
Height
10949 10947 10945 10942 10940 10937 10934 10931 10928 10926 10924 10922 10921 10920 10920 10920 10920 10919 10918 10917 10916 10915 10914 10913 10911 10910 10909 10908 10906 10905 10904 10903 10901 10900 10899 10898 10897 10896 10895 10894 10893 10891
10947 10945 10943 10940 10938 10935 10932 10929 10927 10924 10922 10920 10919 10918 10918 10917 10917 10916 10916 10915 10914 10912 10911 10910 10908 10907 10906 10905 10904 10903 10901 10900 10899 10898 10896 10895 10894 10892 10891 10889 10888 10887
10944 10943 10941 10939 10937 10934 10931 10929 10926 10924 10922 10920 10918 10917 10916 10915 10915 10914 10913 10912 10911 10910 10909 10908 10906 10905 10904 10903 10902 10901 10900 10898 10897 10895 10894 10892 10891 10889 10887 10886 10884 10882
10942 10941 10940 10938 10936 10934 10931 10929 10927 10924 10922 10920 10918 10917 10916 10914 10914 10913 10912 10911 10910 10909 10908 10907 10906 10905 10903 10902 10901 10899 10898 10896 10894 10893 10891 10889 10887 10886 10884 10882 10880 10878
10940 10939 10938 10937 10935 10933 10931 10929 10927 10925 10923 10921 10919 10917 10916 10915 10914 10913 10912 10912 10911 10909 10908 10907 10906 10904 10903 10901 10899 10897 10896 10894 10892 10890 10888 10886 10884 10882 10880 10877 10875 10873
10939 10938 10937 10936 10934 10932 10931 10929 10927 10925 10923 10921 10919 10918 10916 10915 10914 10913 10912 10911 10910 10909 10907 10906 10904 10903 10901 10899 10897 10895 10893 10891 10889 10887 10885 10882 10880 10878 10875 10873 10870 10867
10937 10936 10935 10934 10932 10931 10930 10928 10927 10925 10923 10921 10919 10918 10916 10915 10914 10912 10911 10910 10908 10907 10905 10904 10902 10900 10899 10897 10895 10893 10890 10888 10886 10883 10881 10878 10875 10873 10870 10867 10865 10861
10935 10934 10933 10932 10931 10930 10929 10928 10926 10924 10922 10921 10919 10917 10916 10914 10913 10911 10910 10908 10906 10905 10903 10901 10899 10898 10896 10894 10892 10890 10887 10885 10882 10879 10876 10873 10871 10868 10865 10862 10859 10856
10933 10933 10932 10931 10930 10928 10927 10926 10925 10923 10921 10920 10918 10917 10915 10914 10912 10910 10908 10906 10904 10902 10901 10899 10897 10894 10892 10890 10888 10886 10883 10881 10878 10875 10872 10869 10866 10863 10859 10856 10853 10850
10931 10931 10930 10929 10928 10927 10925 10924 10923 10921 10920 10918 10917 10916 10914 10912 10911 10909 10906 10904 10902 10900 10898 10896 10893 10891 10889 10886 10884 10881 10878 10875 10872 10869 10866 10863 10860 10857 10854 10850 10847 10843
10929 10928 10928 10927 10925 10924 10923 10922 10921 10919 10918 10916 10915 10914 10912 10910 10908 10906 10904 10901 10899 10897 10895 10892 10890 10887 10885 10882 10879 10876 10873 10870 10867 10864 10860 10857 10854 10850 10847 10843 10840 10836
10926 10926 10925 10924 10923 10922 10920 10920 10919 10917 10916 10914 10913 10911 10909 10907 10906 10903 10901 10899 10896 10894 10891 10888 10886 10883 10880 10877 10874 10871 10867 10864 10861 10858 10854 10851 10847 10844 10840 10837 10833 10829
10923 10923 10922 10921 10920 10919 10918 10917 10916 10915 10914 10912 10911 10909 10907 10905 10903 10901 10898 10896 10893 10890 10887 10885 10882 10879 10876 10872 10869 10866 10862 10859 10855 10851 10848 10844 10841 10837 10834 10830 10827 10823
10921 10921 10920 10919 10918 10917 10916 10915 10914 10913 10912 10910 10909 10907 10905 10902 10900 10898 10895 10892 10889 10886 10883 10880 10877 10874 10871 10867 10864 10861 10857 10853 10849 10846 10842 10838 10835 10831 10828 10824 10820 10816
10920 10919 10918 10918 10917 10916 10915 10913 10912 10911 10909 10907 10906 10904 10902 10899 10897 10894 10891 10888 10885 10882 10879 10876 10873 10870 10866 10863 10859 10856 10852 10848 10844 10840 10837 10833 10829 10826 10822 10818 10814 10809
10918 10917 10917 10916 10915 10915 10913 10912 10910 10908 10906 10904 10902 10900 10898 10895 10892 10889 10887 10884 10880 10877 10874 10871 10868 10865 10862 10858 10855 10851 10847 10843 10839 10836 10832 10829 10825 10821 10816 10812 10807 10803
10916 10915 10914 10913 10913 10912 10910 10909 10907 10904 10901 10899 10897 10895 10893 10890 10888 10885 10882 10879 10876 10873 10870 10867 10864 10861 10858 10854 10850 10846 10842 10838 10835 10832 10828 10824 10820 10815 10811 10806 10801 10796
10914 10913 10912 10911 10910 10909 10907 10906 10904 10900 10897 10894 10892 10890 10888 10886 10884 10881 10878 10874 10871 10869 10866 10863 10860 10857 10853 10850 10846 10842 10838 10835 10831 10828 10824 10819 10815 10810 10805 10800 10795 10789
10911 10910 10909 10908 10907 10906 10904 10903 10902 10898 10894 10891 10888 10886 10884 10882 10880 10877 10874 10871 10868 10865 10862 10859 10856 10853 10849 10845 10842 10838 10835 10832 10828 10824 10820 10815 10810 10804 10799 10794 10788 10782
10908 10907 10906 10905 10904 10903 10902 10901 10900 10896 10891 10888 10886 10883 10881 10879 10876 10873 10870 10868 10865 10862 10859 10856 10853 10850 10846 10843 10839 10836 10832 10829 10824 10820 10815 10810 10804 10799 10793 10788 10782 10776
10904 10903 10903 10902 10901 10900 10899 10899 10897 10893 10889 10886 10883 10880 10878 10875 10872 10870 10867 10864 10861 10859 10856 10854 10851 10848 10844 10840 10837 10833 10829 10825 10820 10816 10811 10805 10799 10794 10788 10783 10777 10770
10901 10900 10899 10898 10897 10896 10896 10895 10892 10890 10887 10884 10881 10878 10875 10872 10869 10866 10864 10861 10859 10856 10854 10852 10849 10846 10842 10838 10834 10830 10826 10821 10816 10811 10806 10801 10795 10789 10783 10777 10771 10763
10897 10896 10895 10894 10893 10892 10891 10889 10888 10886 10883 10880 10877 10874 10871 10868 10866 10863 10861 10859 10857 10855 10853 10850 10846 10842 10838 10835 10831 10827 10822 10817 10812 10807 10802 10796 10790 10785 10779 10772 10764 10756
10893 10892 10891 10890 10889 10888 10887 10885 10884 10882 10879 10876 10874 10871 10868 10866 10864 10861 10859 10857 10855 10853 10850 10847 10843 10839 10835 10832 10828 10823 10819 10814 10808 10803 10797 10792 10786 10780 10774 10767 10758 10750
10889 10888 10887 10887 10886 10885 10883 10882 10880 10878 10876 10873 10871 10869 10867 10864 10862 10860 10858 10856 10853 10851 10847 10844 10840 10836 10832 10829 10825 10820 10815 10810 10804 10799 10793 10787 10781 10775 10767 10760 10752 10745
10885 10885 10884 10883 10882 10881 10879 10878 10876 10875 10873 10871 10869 10867 10865 10863 10861 10858 10856 10854 10851 10848 10845 10841 10837 10834 10830 10826 10821 10817 10812 10807 10801 10795 10789 10784 10777 10770 10762 10754 10747 10740